Location: Aalen
(48.8330°N, 10.1000°E)
Time: 18:26:24
(UTC+02:00)

M-CUBED/EXP-1 PRIME - Pass Details

Date: 20 September 2021
Orbit: 427 x 655 km, 101.7° (Epoch: 19 October)

Event Time Altitude Azimuth Distance (km) Brightness Sun altitude
Rises 05:03:52 0° 32° (NNE) 2,466 ? -19.8°
Reaches altitude 10° 05:06:17 10° 49° (NE) 1,563 ? -19.4°
Maximum altitude 05:08:51 21° 100° (E) 1,042 ? -19.0°
Drops below altitude 10° 05:11:22 10° 151° (SSE) 1,523 ? -18.6°
Enters shadow 05:12:57 - 165° (SSE) 2,099 ? -18.4°
